This is the latest recevied weather packets stored in our database for station/object N0HEQ. If no packets are shown the sender has not sent any weather packets the latest 10 day(s).
| Time | Temp. | Humidity | Pressure | Rain* | Wind** | Luminosity | Snow |
|---|---|---|---|---|---|---|---|
| 1777264676 | 6.67° C | 85% | 1008.7 hPa | 0 mm | - | 0 W/m² | - |
| 1777264375 | 6.67° C | 86% | 1008.7 hPa | 0 mm | - | 0 W/m² | - |
| 1777264072 | 6.67° C | 85% | 1008.7 hPa | 0 mm | - | 0 W/m² | - |
| 1777263769 | 6.67° C | 85% | 1008.3 hPa | 0 mm | - | 0 W/m² | - |
| 1777263465 | 6.67° C | 85% | 1008.6 hPa | 0 mm | - | 0 W/m² | - |
| 1777263161 | 6.67° C | 85% | 1008.4 hPa | 0 mm | - | 0 W/m² | - |
| 1777262859 | 6.11° C | 84% | 1008.6 hPa | 0 mm | - | 0 W/m² | - |
| 1777262555 | 6.67° C | 84% | 1008.3 hPa | 0 mm | - | 0 W/m² | - |
| 1777262252 | 6.67° C | 84% | 1008.6 hPa | 0 mm | - | 0 W/m² | - |
| 1777261949 | 6.67° C | 83% | 1008.2 hPa | 0 mm | - | 0 W/m² | - |
| 1777261645 | 6.67° C | 83% | 1008.2 hPa | 0 mm | - | 0 W/m² | - |
| 1777261342 | 6.67° C | 82% | 1008.1 hPa | 0 mm | - | 0 W/m² | - |
| 1777261040 | 6.67° C | 82% | 1008.1 hPa | 0 mm | - | 0 W/m² | - |
| 1777260738 | 6.67° C | 81% | 1008 hPa | 0 mm | - | 0 W/m² | - |
| 1777260434 | 7.22° C | 80% | 1007.7 hPa | 0 mm | - | 0 W/m² | - |
| 1777260129 | 7.22° C | 79% | 1007.8 hPa | 0 mm | - | 0 W/m² | - |
| 1777259826 | 7.78° C | 78% | 1008.1 hPa | 0 mm | - | 0 W/m² | - |
| 1777259523 | 7.78° C | 77% | 1007.7 hPa | 0 mm | - | 0 W/m² | - |
| 1777259221 | 7.78° C | 77% | 1007.7 hPa | 0 mm | - | 0 W/m² | - |
| 1777258615 | 8.33° C | 76% | 1007.6 hPa | 0 mm | - | 0 W/m² | - |
| 1777258311 | 8.89° C | 75% | 1007.5 hPa | 0 mm | - | 0 W/m² | - |
| 1777256796 | 8.89° C | 73% | 1007.6 hPa | 0 mm | - | 0 W/m² | - |
| 1777256492 | 8.89° C | 73% | 1007.4 hPa | 0 mm | - | 0 W/m² | - |
| 1777256187 | 8.89° C | 73% | 1007 hPa | 0 mm | - | 0 W/m² | - |
| 1777254973 | 9.44° C | 71% | 1006.5 hPa | 0 mm | - | 1 W/m² | - |
* Rain latest hour (hover to see other rain measurements)
** Current wind speed in m/s (hover to see current wind gust speed)